Weather History for KOLM - April, 2013

Change the Weather History Date:

Sunday, April 14, 2013

  Actual Average Record
Temperature  
Mean Temperature 42 °F 48 °F  
Max Temperature 49 °F 59 °F 79 °F (1984)
Min Temperature 35 °F 37 °F 25 °F (1970)
Degree Days  
Heating Degree Days 23 17  
Month to date heating degree days 247 249  
Since 1 July heating degree days 4543 4607  
Cooling Degree Days 0 0  
Month to date cooling degree days 0 0  
Year to date cooling degree days 0 0  
Moisture  
Dew Point 38 °F    
Average Humidity 83    
Maximum Humidity 100    
Minimum Humidity 66    
Precipitation  
Precipitation 0.10 in 0.12 in 0.99 in (1968)
Month to date precipitation 4.06 1.85  
Year to date precipitation 15.89 20.25  
Sea Level Pressure  
Sea Level Pressure 30.00 in    
Wind  
Wind Speed 6 mph (SSW)    
Max Wind Speed 14 mph    
Max Gust Speed 17 mph    
Visibility 9 miles    
Events Rain    
T = Trace of Precipitation, MM = Missing Value Source: NWS Daily Summary

Daily Weather History Graph

Daily Weather History Graph

Search for Another Location

Airport or City:

Trip Planner

Search our weather history database for the weather conditions in past years. The results will help you decide how hot, cold, wet, or windy it might be!

Date:

Astronomy

Apr. 14, 2013 Rise Set
Actual Time 6:25 AM PDT 7:59 PM PDT
Civil Twilight 5:53 AM PDT 8:31 PM PDT
Nautical Twilight 5:14 AM PDT 9:10 PM PDT
Astronomical Twilight 4:32 AM PDT 9:52 PM PDT
Moon 8:54 AM PDT (4/14) No Moon Set
Length of Visible Light 14h 38m
Length of Day
13h 34m
Waxing Crescent, 18% of the Moon is Illuminated
Apr 14
Waxing Crescent
Apr 18
First Quarter
Apr 25
Full
May 2
Last Quarter
May 9
New

Hourly Weather History & Observations

Time (PDT) Temp. Windchill Dew Point Humidity Pressure Visibility Wind Dir Wind Speed Gust Speed Precip Events Conditions
12:54 AM 39.9 °F 33.9 °F 37.9 °F 93% 30.03 in 10.0 mi SW 9.2 mph - N/A   Partly Cloudy
1:54 AM 42.1 °F 36.1 °F 37.9 °F 85% 30.03 in 10.0 mi SSW 10.4 mph - 0.00 in Rain Light Rain
2:11 AM 42.8 °F 37.0 °F 37.4 °F 81% 30.03 in 10.0 mi SW 10.4 mph - N/A   Overcast
2:50 AM 41.0 °F 35.8 °F 37.4 °F 87% 30.02 in 10.0 mi SW 8.1 mph - 0.00 in   Scattered Clouds
2:54 AM 41.0 °F 35.2 °F 37.9 °F 89% 30.03 in 10.0 mi SW 9.2 mph - 0.00 in   Scattered Clouds
3:17 AM 39.9 °F 35.8 °F 37.9 °F 93% 30.02 in 10.0 mi SSW 5.8 mph - N/A   Mostly Cloudy
3:54 AM 37.9 °F 33.5 °F 37.0 °F 97% 30.02 in 10.0 mi South 5.8 mph - N/A   Mostly Cloudy
4:54 AM 37.9 °F 32.1 °F 37.0 °F 97% 30.02 in 10.0 mi SSW 8.1 mph - N/A   Mostly Cloudy
5:54 AM 39.0 °F 33.4 °F 37.0 °F 93% 30.01 in 10.0 mi SSW 8.1 mph - N/A   Mostly Cloudy
6:54 AM 39.9 °F 34.5 °F 37.0 °F 89% 30.02 in 9.0 mi SSW 8.1 mph - N/A   Mostly Cloudy
7:03 AM 39.9 °F 34.5 °F 37.0 °F 89% 30.01 in 9.0 mi SSW 8.1 mph - N/A   Overcast
7:10 AM 39.9 °F 35.1 °F 37.9 °F 93% 30.01 in 9.0 mi SSW 6.9 mph - N/A   Overcast
7:54 AM 39.9 °F 36.7 °F 37.9 °F 93% 30.02 in 10.0 mi SSW 4.6 mph - N/A   Overcast
8:54 AM 42.1 °F 39.2 °F 39.0 °F 89% 30.02 in 10.0 mi Variable 4.6 mph - N/A   Overcast
9:54 AM 44.1 °F 40.1 °F 39.0 °F 82% 30.01 in 10.0 mi SSW 6.9 mph - 0.01 in   Mostly Cloudy
10:54 AM 44.1 °F 39.0 °F 37.9 °F 79% 30.01 in 6.0 mi WSW 9.2 mph - 0.00 in Rain Light Rain
11:54 AM 46.0 °F 42.5 °F 39.0 °F 76% 29.99 in 9.0 mi ESE 6.9 mph - 0.02 in   Mostly Cloudy
12:54 PM 48.2 °F - 37.4 °F 66% 29.97 in 9.0 mi NNE 3.5 mph - N/A   Mostly Cloudy
1:54 PM 45.0 °F 40.6 °F 39.0 °F 80% 29.97 in 10.0 mi ESE 8.1 mph - 0.01 in Rain Light Rain
2:54 PM 48.0 °F - 37.9 °F 68% 29.98 in 10.0 mi East 8.1 mph - 0.00 in   Overcast
3:54 PM 46.9 °F - 42.1 °F 83% 29.96 in 10.0 mi SSE 9.2 mph - 0.00 in   Mostly Cloudy
4:54 PM 46.9 °F - 37.9 °F 71% 29.96 in 10.0 mi WNW 12.7 mph - N/A   Mostly Cloudy
5:54 PM 44.1 °F 41.5 °F 39.0 °F 82% 29.97 in 10.0 mi North 4.6 mph - 0.05 in Rain Light Rain
6:54 PM 42.1 °F 37.1 °F 39.0 °F 89% 29.96 in 10.0 mi WSW 8.1 mph - 0.01 in Rain Light Rain
7:54 PM 39.9 °F 35.8 °F 37.9 °F 93% 29.96 in 10.0 mi West 5.8 mph - 0.00 in   Partly Cloudy
8:54 PM 37.0 °F 33.3 °F 37.0 °F 100% 29.97 in 9.0 mi South 4.6 mph - N/A   Mostly Cloudy
9:54 PM 37.9 °F 35.5 °F 37.0 °F 97% 29.98 in 9.0 mi East 3.5 mph - N/A   Partly Cloudy
10:54 PM 37.0 °F 34.5 °F 36.0 °F 96% 29.97 in 7.0 mi SSE 3.5 mph - N/A   Overcast
11:54 PM 37.9 °F - 37.0 °F 97% 29.97 in 8.0 mi Calm Calm - N/A   Mostly Cloudy